Date String (YYYY-MM-DD hh:mm:ss) UTC,Instrument flags,absolute air pressure of the measurement (hPa),sample flow rate (lpm),inlet stack bypass flow (lpm),air temperature of the measurement (°C),ambient temperature measured by the external sensor (°C),aerosol sample conditioner tube jacket temperature (°C),OPC LED temperature (°C),internal box temperature (°C),relative humidity of the measurement (%),span deviation,mass concentration of particles derived from Lorenz-Mie calculation of OPC scattering (μg/m³),mass concentration of particles derived from Lorenz-Mie calculation of OPC scattering (μg/m³),mass concentration of particles derived from Lorenz-Mie calculation of OPC scattering (μg/m³)
DateTimeUTC,F1_M11,P_M11,Q1_M11,Q2_M11,T1_M11,T2_M11,T3_M11,T4_M11,T5_M11,U1_M11,ZSPAN_M11,X0_M11,X2_M11,X1_M11
2023-10-02 01:00:00,SystemResetWarning,0825.4,5.00,000.00,028.2,027.0,000.0,036.6,030.1,15.8,0000.0,0009.33,0004.05,0003.23
2023-10-02 01:01:00,SystemResetWarning,0825.4,5.00,000.00,028.2,027.1,000.0,036.6,030.1,15.7,0000.0,0008.86,0004.07,0003.22
2023-10-02 01:02:00,SystemResetWarning,0825.4,4.98,000.00,028.3,026.0,000.0,036.6,030.0,15.7,0000.0,0008.97,0004.09,0003.23
2023-10-02 01:03:00,SystemResetWarning,0825.4,5.01,000.00,028.2,024.9,000.0,036.5,029.9,15.7,0000.0,0008.79,0004.07,0003.24
2023-10-02 01:04:00,SystemResetWarning,0825.4,5.01,000.00,028.2,024.9,000.0,036.5,029.8,15.8,0000.0,0008.58,0004.05,0003.23
2023-10-02 01:05:00,SystemResetWarning,0825.4,5.01,000.00,028.1,025.2,000.0,036.5,029.7,15.8,0000.0,0008.72,0004.07,0003.23
2023-10-02 01:06:00,SystemResetWarning,0825.4,5.00,000.00,028.1,025.5,000.0,036.5,029.7,15.8,0000.0,0009.17,0004.10,0003.23
2023-10-02 01:07:00,SystemResetWarning,0825.5,5.00,000.00,028.1,025.9,000.0,036.5,029.8,15.8,0000.0,0009.84,0004.10,0003.24
2023-10-02 01:08:00,SystemResetWarning,0825.5,5.00,000.00,028.1,026.2,000.0,036.5,029.9,15.8,0000.0,0009.83,0004.14,0003.25
2023-10-02 01:09:00,SystemResetWarning,0825.5,5.00,000.00,028.1,026.5,000.0,036.6,029.9,15.7,0000.0,0010.14,0004.14,0003.26
2023-10-02 01:10:00,SystemResetWarning,0825.5,5.00,000.00,028.2,026.7,000.0,036.6,030.0,15.6,0000.0,0010.24,0004.13,0003.26
2023-10-02 01:11:00,SystemResetWarning,0825.5,5.00,000.00,028.2,026.9,000.0,036.6,030.1,15.6,0000.0,0010.53,0004.17,0003.27
2023-10-02 01:12:00,SystemResetWarning,0825.5,5.01,000.00,028.2,027.1,000.0,036.6,030.1,15.5,0000.0,0010.59,0004.14,0003.27
2023-10-02 01:13:00,SystemResetWarning,0825.5,4.99,000.00,028.3,026.4,000.0,036.6,030.1,15.4,0000.0,0011.16,0004.13,0003.27
2023-10-02 01:14:00,SystemResetWarning,0825.5,5.00,000.00,028.2,024.6,000.0,036.5,029.8,15.4,0000.0,0011.21,0004.13,0003.26
2023-10-02 01:15:00,SystemResetWarning,0825.5,5.01,000.00,028.1,023.9,000.0,036.5,029.7,15.4,0000.0,0011.33,0004.16,0003.27
2023-10-02 01:16:00,SystemResetWarning,0825.5,5.01,000.00,028.0,024.1,000.0,036.4,029.5,15.5,0000.0,0011.35,0004.11,0003.27
2023-10-02 01:17:00,SystemResetWarning,0825.4,5.00,000.00,027.9,024.5,000.0,036.4,029.5,15.6,0000.0,0011.27,0004.10,0003.27
2023-10-02 01:18:00,SystemResetWarning,0825.5,5.00,000.00,027.9,024.9,000.0,036.4,029.5,15.7,0000.0,0011.31,0004.14,0003.27
2023-10-02 01:19:00,SystemResetWarning,0825.5,5.00,000.00,027.9,025.4,000.0,036.5,029.6,15.6,0000.0,0011.75,0004.15,0003.27
2023-10-02 01:20:00,SystemResetWarning,0825.5,5.00,000.00,027.9,025.8,000.0,036.4,029.6,15.5,0000.0,0011.31,0004.11,0003.26
2023-10-02 01:21:00,SystemResetWarning,0825.5,5.00,000.00,027.9,026.1,000.0,036.4,029.7,15.5,0000.0,0011.83,0004.07,0003.25
2023-10-02 01:22:00,SystemResetWarning,0825.5,5.00,000.00,028.0,026.4,000.0,036.5,029.8,15.5,0000.0,0011.98,0004.06,0003.25
2023-10-02 01:23:00,SystemResetWarning,0825.5,5.01,000.00,028.0,026.6,000.0,036.5,029.9,15.5,0000.0,0011.73,0004.07,0003.26
2023-10-02 01:24:00,SystemResetWarning,0825.5,5.00,000.00,028.1,026.8,000.0,036.5,029.9,15.5,0000.0,0011.06,0004.05,0003.25
2023-10-02 01:25:00,SystemResetWarning,0825.5,5.00,000.00,028.1,027.0,000.0,036.5,030.0,15.4,0000.0,0010.73,0004.02,0003.26
2023-10-02 01:26:00,SystemResetWarning,0825.5,4.99,000.00,028.1,027.1,000.0,036.5,030.0,15.4,0000.0,0010.55,0003.99,0003.27
2023-10-02 01:27:00,SystemResetWarning,0825.6,4.99,000.00,028.2,027.2,000.0,036.6,030.1,15.4,0000.0,0010.35,0004.02,0003.28
2023-10-02 01:28:00,SystemResetWarning,0825.6,4.99,000.00,028.2,027.3,000.0,036.6,030.1,15.4,0000.0,0010.16,0004.04,0003.28
2023-10-02 01:29:00,SystemResetWarning,0825.6,5.00,000.00,028.3,026.5,000.0,036.6,030.1,15.3,0000.0,0009.79,0004.02,0003.28
2023-10-02 01:30:00,SystemResetWarning,0825.6,5.01,000.00,028.2,025.0,000.0,036.5,029.9,15.3,0000.0,0009.28,0004.01,0003.29
2023-10-02 01:31:00,SystemResetWarning,0825.6,5.01,000.00,028.2,024.8,000.0,036.5,029.8,15.4,0000.0,0010.62,0004.04,0003.29
2023-10-02 01:32:00,SystemResetWarning,0825.6,5.01,000.00,028.1,025.1,000.0,036.5,029.7,15.5,0000.0,0010.44,0004.07,0003.30
2023-10-02 01:33:00,SystemResetWarning,0825.7,5.00,000.00,028.1,025.4,000.0,036.5,029.7,15.6,0000.0,0010.74,0004.06,0003.30
2023-10-02 01:34:00,SystemResetWarning,0825.6,4.99,000.00,028.1,025.8,000.0,036.5,029.8,15.6,0000.0,0011.49,0004.09,0003.30
2023-10-02 01:35:00,SystemResetWarning,0825.6,4.99,000.00,028.1,026.1,000.0,036.5,029.8,15.5,0000.0,0011.99,0004.12,0003.30
2023-10-02 01:36:00,SystemResetWarning,0825.7,5.00,000.00,028.1,026.4,000.0,036.5,029.9,15.4,0000.0,0012.75,0004.18,0003.30
2023-10-02 01:37:00,SystemResetWarning,0825.6,5.01,000.00,028.1,026.6,000.0,036.6,029.9,15.3,0000.0,0013.43,0004.23,0003.30
2023-10-02 01:38:00,SystemResetWarning,0825.7,4.98,000.00,028.2,026.8,000.0,036.6,030.0,15.2,0000.0,0013.86,0004.28,0003.30
2023-10-02 01:39:00,SystemResetWarning,0825.7,5.00,000.00,028.2,027.0,000.0,036.6,030.1,15.1,0000.0,0014.25,0004.26,0003.29
2023-10-02 01:40:00,SystemResetWarning,0825.7,5.00,000.00,028.3,027.1,000.0,036.6,030.1,15.0,0000.0,0014.76,0004.23,0003.29
2023-10-02 01:41:00,SystemResetWarning,0825.7,5.00,000.00,028.3,026.8,000.0,036.6,030.2,14.9,0000.0,0015.24,0004.23,0003.29
2023-10-02 01:42:00,SystemResetWarning,0825.6,5.00,000.00,028.3,025.2,000.0,036.6,030.0,14.8,0000.0,0014.36,0004.21,0003.29
2023-10-02 01:43:00,SystemResetWarning,0825.6,5.01,000.00,028.2,024.8,000.0,036.5,029.9,14.7,0000.0,0014.03,0004.24,0003.30
2023-10-02 01:44:00,SystemResetWarning,0825.6,5.00,000.00,028.1,025.0,000.0,036.5,029.7,14.7,0000.0,0014.26,0004.24,0003.30
2023-10-02 01:45:00,SystemResetWarning,0825.7,5.00,000.00,028.1,025.3,000.0,036.6,029.7,14.6,0000.0,0013.99,0004.24,0003.31
2023-10-02 01:46:00,SystemResetWarning,0825.6,5.00,000.00,028.1,025.6,000.0,036.6,029.8,14.6,0000.0,0014.62,0004.26,0003.33
2023-10-02 01:47:00,SystemResetWarning,0825.7,5.01,000.00,028.1,026.0,000.0,036.6,029.8,14.7,0000.0,0014.04,0004.22,0003.34
2023-10-02 01:48:00,SystemResetWarning,0825.7,5.00,000.00,028.1,026.3,000.0,036.6,029.9,14.6,0000.0,0013.79,0004.24,0003.35
2023-10-02 01:49:00,SystemResetWarning,0825.7,5.00,000.00,028.1,026.5,000.0,036.6,029.9,14.5,0000.0,0014.20,0004.18,0003.36
2023-10-02 01:50:00,SystemResetWarning,0825.7,5.00,000.00,028.2,026.8,000.0,036.6,030.0,14.5,0000.0,0013.78,0004.19,0003.37
2023-10-02 01:51:00,SystemResetWarning,0825.7,4.99,000.00,028.2,026.9,000.0,036.6,030.1,14.5,0000.0,0013.09,0004.23,0003.38
2023-10-02 01:52:00,SystemResetWarning,0825.7,4.99,000.00,028.3,027.1,000.0,036.7,030.1,14.4,0000.0,0012.94,0004.28,0003.40
2023-10-02 01:53:00,SystemResetWarning,0825.7,5.02,000.00,028.3,027.2,000.0,036.7,030.2,14.4,0000.0,0013.50,0004.36,0003.41
2023-10-02 01:54:00,SystemResetWarning,0825.8,4.99,000.00,028.3,026.5,000.0,036.7,030.2,14.2,0000.0,0013.93,0004.38,0003.42
2023-10-02 01:55:00,SystemResetWarning,0825.7,4.99,000.00,028.3,024.6,000.0,036.6,029.9,14.1,0000.0,0013.09,0004.40,0003.43
2023-10-02 01:56:00,SystemResetWarning,0825.7,5.02,000.00,028.2,023.9,000.0,036.5,029.7,14.2,0000.0,0012.55,0004.42,0003.43
2023-10-02 01:57:00,SystemResetWarning,0825.7,5.00,000.00,028.1,024.1,000.0,036.5,029.6,14.2,0000.0,0012.24,0004.43,0003.43
2023-10-02 01:58:00,SystemResetWarning,0825.8,4.99,000.00,028.0,024.5,000.0,036.5,029.5,14.3,0000.0,0012.75,0004.49,0003.43
2023-10-02 01:59:00,SystemResetWarning,0825.8,5.00,000.00,027.9,024.9,000.0,036.5,029.5,14.4,0000.0,0012.62,0004.51,0003.44
